Flag for Netherlands Weather past 2 weeks in Apeldoorn, Netherlands

Now
50 °F

Fog.


Feels Like: 46 °F
Forecast: 47 / 55 °F
Wind: 10 mph from Southwest

Location: Deelen

Current Time: Dec 17, 2014 at 9:22:41 PM

Latest Report: Dec 17, 2014 at 8:55 PM


Visibility: 3 mi

Pressure: 29.74 "Hg

Humidity: 100%

Dew point: 50 °F

Location of ApeldoornLocation

Historic Weather in Apeldoorn — Graph

°F

Apeldoorn temperature yesterday

Maximum temperature yesterday: 45 °F (at 1:25 PM)
Minimum temperature yesterday: 34 °F (at 7:55 PM)
Average temperature yesterday: 40 °F

Past Weeks' High & Low Weather Summary

 TemperatureHumidityPressure
High50 °F (Dec 17, 3:25 PM)100% (Dec 3, 7:55 AM)30.33 "Hg (Dec 3, 7:55 AM)
Low27 °F (Dec 3, 2:55 PM)66% (Dec 10, 2:25 PM)29.30 "Hg (Dec 12, 11:55 AM)
Average38 °F94%29.93 "Hg
* Reported Dec 2 7:25 PM — Dec 17 7:55 PM, Apeldoorn, Weather by CustomWeather, © 2014

Note: Actual official high and low records may vary slightly from our data, if they occured in-between our weather recording intervals... More about our weather records

Advertising

Apeldoorn weather history for previous 24 hours

 ConditionsComfort  
Time TempWeatherWind HumidityBarometerVisibility
7:55 PM
Dec 17
50 °FFog.9 mph100%29.71 "Hg3 mi
7:25 PM50 °FFog.8 mph100%29.68 "Hg3 mi
6:55 PM50 °FDrizzle. Overcast.8 mph100%29.68 "Hg2 mi
6:25 PM50 °FFog.9 mph100%29.68 "Hg3 mi
5:55 PM50 °FFog.9 mph100%29.65 "Hg3 mi
5:25 PM50 °FFog.10 mph100%29.65 "Hg4 mi
4:55 PM50 °FDrizzle. Mostly cloudy.9 mph100%29.62 "Hg1 mi
4:25 PM50 °FDrizzle. Mostly cloudy.9 mph100%29.62 "Hg2 mi
3:55 PM50 °FDrizzle. Mostly cloudy.9 mph100%29.59 "Hg3 mi
3:25 PM50 °FFog.9 mph100%29.59 "Hg4 mi
2:55 PM48 °FFog.10 mph100%29.56 "Hg4 mi
2:25 PM48 °FFog.10 mph100%29.56 "Hg2 mi
1:55 PM46 °FFog.9 mph100%29.56 "Hg2 mi
1:25 PM45 °FDrizzle. Low clouds.10 mph100%29.56 "Hg2 mi
12:55 PM45 °FLight rain. Mostly cloudy.13 mph100%29.53 "Hg1 mi
12:25 PM43 °FDrizzle. Mostly cloudy.14 mph100%29.53 "Hg2 mi
11:55 AM43 °FLight rain. Mostly cloudy.15 mph100%29.56 "Hg1 mi
11:25 AM43 °FDrizzle. More clouds than sun.16 mph100%29.56 "Hg2 mi
10:55 AM41 °FLight rain. Mostly cloudy.16 mph100%29.56 "Hg2 mi
10:25 AM41 °FDrizzle. Mostly cloudy.17 mph100%29.56 "Hg2 mi
9:55 AM41 °FDrizzle. Mostly cloudy.18 mph100%29.56 "Hg2 mi
9:25 AM41 °FDrizzle. Mostly cloudy.17 mph93%29.56 "Hg3 mi
8:55 AM39 °FDrizzle. Cloudy.17 mph100%29.59 "Hg2 mi
8:25 AM39 °FLight rain. Mostly cloudy.16 mph100%29.62 "Hg3 mi
7:55 AM39 °FLight rain. Partly cloudy.15 mph100%29.62 "Hg4 mi
7:25 AM39 °FLight rain. Mostly cloudy.14 mph100%29.65 "Hg6 mi
6:55 AM39 °FDrizzle. Mostly cloudy.14 mph100%29.68 "Hg6 mi
6:25 AM39 °FLight rain. Partly cloudy.13 mph100%29.68 "Hg4 mi
5:55 AM39 °FLight rain. Partly cloudy.10 mph93%29.71 "Hg4 mi
5:25 AM39 °FDrizzle. Overcast.13 mph93%29.74 "Hg5 mi
4:55 AM39 °FFog.10 mph93%29.77 "Hg4 mi
4:25 AM39 °FFog.10 mph93%29.77 "Hg4 mi
3:55 AM39 °FFog.12 mph93%29.80 "Hg4 mi
3:25 AM39 °FFog.10 mph93%29.83 "Hg4 mi
2:55 AM39 °FFog.10 mph93%29.83 "Hg4 mi
2:25 AM39 °FFog.12 mph93%29.83 "Hg5 mi
1:55 AM37 °FFog.9 mph100%29.86 "Hg4 mi
1:25 AM37 °FFog.8 mph100%29.86 "Hg3 mi
12:55 AM37 °FFog.9 mph100%29.89 "Hg3 mi
12:25 AM37 °FFog.9 mph100%29.89 "Hg3 mi
11:55 PM
Dec 16
37 °FFog.8 mph100%29.89 "Hg4 mi
11:25 PM37 °FFog.9 mph100%29.89 "Hg4 mi
10:55 PM36 °FFog.8 mph93%29.89 "Hg4 mi
10:25 PM34 °FFog.8 mph100%29.92 "Hg4 mi
9:55 PM36 °FFog.6 mph93%29.92 "Hg5 mi
9:25 PM34 °FFog.6 mph100%29.92 "Hg4 mi
Weather by CustomWeather, © 2014

See weather overviewHow to use our weather pages